Voltar ao catálogo

SATCOM 3 DEB *

LostHEO
NORAD 32990·DEBRIS·🇺🇸 United States

Lançado Dec 7, 1979 de Cape Canaveral Space Force Station

Loading…

Próximas Passagens (próximas 24 horas)

TLE

ObsoletoSource: Space-Track

Época: Jun 24, 2022, 11:24 UTC

1 32990U 79101R   22175.47547965 -.00000125  00000-0  00000+0 0  9993
2 32990   7.0322 215.0620 5060493 224.5900 263.5182  1.81677887 96357

Acompanhe SATCOM 3 DEB * em tempo real com AllMySat

Download on the App Store